Weather WX

World > North America > United States > Minnesota

Rice, Minnesota Regional Weather

Lat: 45.75N, Lon: 94.23W
Wx Zone: MNZ050
Warning FLW WEATHER ALERT - (More Info. Click Here) Warning
Feedback

Rice, MN Regional Weather

Expires:201906201200;;781778
ASUS43 KMPX 201110
RWRMN 
WEATHER ROUNDUP FOR MINNESOTA
NATIONAL WEATHER SERVICE TWIN CITIES/CHANHASSEN MN
600 AM CDT THU JUN 20 2019


NOTE: "FAIR" INDICATES FEW OR NO CLOUDS BELOW 12,000 FEET WITH NO
SIGNIFICANT WEATHER AND/OR OBSTRUCTIONS TO VISIBILITY. N/A MEANS
CURRENT SKY AND/OR WEATHER CONDITIONS ARE NOT AVAILABLE.


MNZ033>034-036-042>043-049>051-058-059-201200-
   Central Minnesota     
  
CITY           SKY/WX    TMP DP  RH WIND       PRES   REMARKS
ST CLOUD       FAIR      58  48  69 NE6       29.77S                  
SAUK CENTRE    CLOUDY    59  48  65 E9        29.77S                  
PAYNESVILLE    FAIR      60  50  69 CALM      29.77S                  
AITKIN         FAIR      48  45  87 CALM      29.81S                  
PINE RIVER     FAIR      54  45  71 CALM      29.85S                  
BRAINERD       FAIR      61  45  55 E5        29.81R                  
STAPLES        FAIR      57  46  67 CALM      29.79S                  
LONG PRAIRIE   CLOUDY    55  48  76 E8        29.78F                  
LITTLE FALLS   MOCLDY    57  48  72 CALM      29.79S                  
LITCHFIELD     FAIR      61  52  72 E7        29.76S                  
BUFFALO        MOCLDY    59  48  65 MISG      29.78S                  
MAPLE LAKE       N/A     59  50  72 CALM      29.78S                  
HUTCHINSON     PTCLDY    63  55  75 NE6       29.75F                  
$$

SKY/WX - Weather  TMP - Temperature  DP - Dew Point  RH - Relative Humidity
WIND - Wind Direction/Speed PRES - Barometric Pressure VSB - Visibility
WCI - Wind Chill Index E13G22 Wind - East Wind 13 mph/Gusts of 22 mph